Theta_e
331 326 320 310 299 296 291 295 296 297 297 300 303 309 307 315 310 303 329 340 347 351 355 356 359 359 359 358 357 356 356 355 353 350 347 344 345 344 346 348 348 345 344 342 341 342 341 340 340
326 322 312 303 294 289 291 296 297 299 301 303 309 309 316 315 324 329 333 345 350 352 354 354 359 359 358 356 355 354 351 349 349 347 343 344 344 345 345 349 348 345 343 340 340 340 339 339 341
325 319 306 298 293 290 291 297 298 301 301 301 304 315 317 318 329 331 336 348 351 351 353 355 358 358 357 356 353 350 348 346 346 344 343 347 345 346 346 350 346 344 341 339 339 339 338 338 339
317 311 304 296 293 297 296 298 302 301 302 303 312 314 321 327 328 334 345 349 349 347 350 355 357 358 356 355 352 348 346 344 343 342 346 350 347 346 350 349 345 344 341 339 339 339 338 338 339
316 306 296 292 295 299 300 303 302 300 300 301 310 314 317 327 334 341 344 346 344 344 347 353 357 357 356 354 351 349 345 343 342 343 348 351 349 350 350 345 343 342 340 339 340 340 339 338 338
308 306 292 291 294 299 302 304 303 298 300 314 316 316 316 328 334 338 342 341 346 346 348 351 353 355 355 353 352 350 346 343 341 345 348 347 347 348 346 343 342 341 340 340 340 340 338 337 336
305 300 294 294 296 298 302 307 300 299 299 302 319 314 317 324 329 339 338 341 344 347 347 348 349 351 351 352 350 349 348 346 343 346 348 348 346 345 344 343 342 341 340 339 340 340 338 337 335
309 302 296 298 297 298 305 306 308 302 299 307 320 315 316 326 333 339 340 341 342 345 347 345 346 347 346 347 347 347 346 345 343 343 344 343 341 342 343 342 342 342 340 340 340 340 338 336 335
316 300 295 297 299 301 307 304 309 311 302 312 317 319 327 332 337 336 335 337 339 341 341 342 342 341 340 340 342 345 344 343 341 339 338 336 334 335 336 336 338 341 342 341 340 340 338 337 334
307 299 298 303 305 304 307 308 307 305 305 311 320 328 331 332 334 333 333 333 332 334 337 339 339 339 338 342 338 338 339 336 334 332 331 329 329 330 333 331 336 340 341 341 341 341 338 334 323
307 300 303 305 307 310 308 308 308 303 301 302 315 325 326 327 329 331 331 333 333 334 334 336 335 336 337 338 336 335 334 332 330 329 328 326 327 326 327 326 329 330 333 333 336 333 328 323 319
302 306 306 308 310 308 306 310 306 304 303 308 306 325 324 325 326 328 328 329 329 330 332 333 334 334 334 335 335 335 334 331 329 328 327 324 322 322 323 323 325 326 328 328 329 326 324 321 319
300 304 307 310 309 309 309 306 305 304 308 310 308 324 321 322 323 325 329 329 329 330 331 331 332 333 334 333 333 333 333 333 331 328 328 325 322 320 322 323 324 325 325 326 326 325 323 320 316
303 304 306 307 307 309 305 305 305 305 307 304 316 319 320 321 322 322 326 327 327 330 332 333 333 332 332 333 332 332 331 333 333 331 329 327 324 322 322 323 324 324 324 325 326 325 323 322 319
302 299 302 303 304 304 307 300 300 306 307 302 302 303 306 314 319 322 326 327 328 329 332 333 334 334 330 332 332 329 330 331 332 333 332 330 327 323 323 323 323 324 323 324 324 324 324 322 321
296 298 292 299 302 303 304 295 303 308 306 302 300 300 300 302 303 308 322 326 327 329 331 331 336 334 331 330 329 328 327 327 329 332 333 332 330 326 323 323 323 324 322 322 322 323 322 322 321
291 287 290 294 302 301 300 294 302 308 306 303 300 299 301 300 300 300 302 306 312 325 328 331 332 333 333 332 332 330 327 326 327 328 330 331 332 329 326 324 324 323 322 321 322 320 321 319 320
287 287 291 291 297 298 296 294 299 302 301 302 304 299 299 300 300 301 301 300 302 303 306 315 323 326 332 332 331 331 331 330 331 331 329 329 329 328 326 326 325 324 323 320 318 320 317 320 320
291 290 290 292 298 296 295 294 297 298 296 295 296 296 298 299 297 299 299 300 303 302 302 302 304 304 310 324 326 326 327 329 328 330 333 333 332 329 326 325 324 324 323 323 322 319 317 316 312
291 289 289 293 296 296 294 294 298 299 296 296 296 295 296 296 297 300 303 303 304 304 304 305 305 305 303 305 307 316 324 327 328 328 329 331 331 332 330 327 326 324 322 321 321 319 317 316 312
287 287 288 289 292 292 291 289 293 297 295 296 297 296 296 296 298 300 301 303 305 305 305 306 305 305 304 304 303 304 305 309 318 322 324 327 328 329 329 329 328 326 322 322 321 319 318 319 312
285 291 291 290 289 283 291 282 287 291 293 294 295 294 295 295 298 300 302 303 303 304 305 306 305 305 306 305 304 301 301 301 304 307 310 308 310 316 322 325 325 325 324 321 321 320 319 317 317
289 291 291 290 287 284 284 282 286 286 287 292 295 292 293 294 298 300 302 304 305 304 303 303 304 304 305 304 304 303 302 302 303 304 304 305 306 312 313 315 321 322 323 323 322 320 317 318 317
294 290 289 288 286 278 284 283 282 284 287 288 293 291 292 296 298 300 302 304 302 302 302 302 303 302 303 303 303 304 303 303 304 304 305 305 306 308 309 311 311 315 322 322 320 320 318 317 317
291 284 278 278 278 277 284 282 287 289 289 290 291 291 293 296 298 299 301 301 301 301 301 302 301 300 300 302 302 303 303 302 302 303 303 303 304 305 305 306 307 309 312 316 317 317 316 315 317
290 284 277 273 275 277 283 280 285 291 291 292 293 293 295 296 298 299 300 300 300 300 300 300 299 298 298 300 299 299 300 301 300 300 301 300 302 303 303 304 305 306 308 315 317 315 314 314 314
289 282 285 277 276 274 279 282 287 289 290 289 292 294 294 296 298 299 299 299 299 299 298 298 297 297 297 298 297 296 296 296 295 295 295 296 296 301 301 301 301 301 301 304 309 310 310 312 312
291 291 283 277 270 271 276 277 281 284 287 289 291 293 295 297 298 298 298 298 298 298 297 296 296 296 296 296 295 294 293 293 293 293 292 293 294 295 296 296 296 296 297 298 299 299 300 304 302
290 288 286 284 278 274 273 277 284 285 288 289 292 294 295 297 298 297 298 298 298 297 295 295 295 295 294 294 293 292 292 292 292 291 291 292 292 293 293 293 293 293 293 294 294 295 295 296 297
294 291 286 278 275 274 274 277 286 285 288 292 293 296 296 299 298 296 296 296 296 295 294 294 294 294 294 293 292 292 291 291 290 291 291 292 291 292 292 292 292 292 292 292 291 291 292 291 291
Wind_Speed
4 3 3 5 4 5 3 6 3 5 1 2 3 3 7 4 2 5 1 6 12 11 11 12 15 15 14 13 13 12 10 11 12 14 11 9 9 10 9 10 13 11 11 10 10 10 10 11 12
1 2 5 3 5 3 5 4 5 5 2 6 6 2 6 3 2 5 7 7 16 12 10 9 14 14 15 13 12 14 13 11 11 10 9 9 9 10 10 11 13 11 10 10 9 9 9 10 11
1 5 4 4 3 5 5 3 5 6 3 3 4 4 2 2 4 6 4 12 12 11 10 10 14 15 14 14 14 14 13 10 8 9 8 8 10 10 10 14 13 12 10 10 9 9 9 9 9
1 4 5 4 5 6 4 3 4 8 4 4 5 7 2 2 3 5 12 13 12 8 8 12 14 14 13 14 13 14 13 11 9 7 4 12 11 11 11 14 12 11 10 10 9 8 8 8 7
3 3 3 1 5 5 4 5 6 6 7 1 2 5 2 3 2 13 12 11 13 8 7 12 16 15 13 14 13 13 13 12 11 6 6 12 10 12 13 12 11 11 10 10 8 7 6 5 5
2 4 3 4 5 4 5 4 4 3 4 2 5 5 2 3 6 8 10 10 11 11 7 11 15 15 14 14 14 13 13 12 11 10 6 10 8 11 11 10 10 9 9 9 7 6 4 3 4
7 6 6 4 3 4 2 8 4 7 5 3 8 5 1 3 2 6 8 7 7 8 7 6 7 10 13 13 14 14 12 11 10 9 8 11 9 8 8 7 7 7 7 7 6 4 2 1 1
3 4 8 5 6 4 3 7 5 6 6 4 2 6 5 4 6 8 7 7 6 5 6 6 5 7 8 10 13 13 12 11 11 8 7 8 9 9 9 6 4 5 6 6 5 3 2 3 3
2 4 15 12 9 3 3 7 8 7 3 6 4 3 7 8 12 10 8 5 4 4 4 5 5 4 6 5 7 11 11 10 9 8 7 6 3 4 5 4 7 7 7 7 6 4 3 3 5
9 8 12 8 3 2 4 6 7 9 13 4 3 8 9 9 12 13 11 10 5 5 4 4 5 5 5 4 5 5 5 4 4 5 5 3 4 3 3 3 5 6 6 7 7 6 4 2 2
4 21 7 5 3 6 5 5 4 7 7 1 8 12 6 7 8 12 8 11 12 7 4 6 5 5 6 4 3 2 2 3 3 5 5 4 3 2 2 2 2 2 5 2 4 2 1 3 2
10 13 15 5 5 2 3 3 5 4 9 17 10 7 6 8 9 9 8 7 7 6 7 6 5 5 5 3 4 4 4 3 3 4 5 4 3 3 3 3 4 4 3 4 4 2 3 4 5
5 12 13 12 9 4 5 2 4 13 18 19 8 6 5 6 6 4 6 5 6 6 7 7 7 6 5 5 4 4 4 4 4 4 5 4 4 4 4 4 3 4 3 4 4 4 4 4 5
6 5 11 12 7 6 3 3 6 9 9 16 4 7 6 6 6 5 6 7 7 7 8 8 9 8 7 6 6 5 4 5 4 4 5 6 5 4 4 4 4 4 4 4 4 5 4 4 4
3 7 9 9 9 4 5 3 7 22 18 13 6 5 6 8 6 7 7 8 9 6 8 9 9 7 8 9 7 5 5 5 5 6 6 8 7 6 6 5 4 6 4 5 4 4 3 4 4
6 4 5 7 13 5 12 10 15 16 16 13 8 7 5 4 5 6 7 7 6 5 8 7 7 7 7 8 6 4 5 4 5 5 4 8 8 8 7 5 6 6 4 5 4 5 4 5 4
2 6 6 8 13 11 13 5 15 22 16 20 8 8 7 6 3 3 4 6 7 7 6 6 6 7 8 6 5 6 6 5 5 4 6 8 9 8 8 7 7 6 5 5 5 4 5 4 5
15 10 9 10 16 13 20 6 12 14 13 18 19 8 8 7 6 6 4 3 4 3 2 1 2 2 4 4 3 2 3 4 4 5 5 7 7 7 6 5 5 4 4 4 3 7 4 6 6
6 5 10 3 8 15 12 6 4 7 6 10 11 9 9 8 1 4 5 6 6 5 6 5 5 4 2 1 2 2 4 3 3 4 5 5 4 4 5 5 5 5 6 8 6 4 6 4 2
6 7 6 2 6 11 6 9 9 11 8 9 10 8 9 5 5 5 5 4 5 4 4 6 5 4 3 2 0 0 1 2 2 2 3 5 5 6 5 6 6 5 4 6 6 6 3 3 4
2 7 5 5 4 3 4 4 7 12 6 6 8 7 5 9 9 6 6 5 5 5 4 4 4 5 4 3 1 1 1 2 2 1 1 1 3 4 5 6 5 5 5 5 6 5 8 8 3
3 3 5 6 6 4 5 5 7 7 12 8 11 8 8 9 6 6 6 5 5 3 4 5 5 5 5 5 3 2 0 1 2 2 3 4 4 5 4 5 5 5 4 5 6 5 6 4 6
2 3 5 1 3 3 2 1 6 1 7 16 14 9 9 9 9 9 8 7 5 5 4 4 5 6 5 5 3 2 0 1 1 2 4 5 5 6 6 6 5 5 4 5 6 5 6 5 3
5 6 7 5 3 3 5 5 6 7 8 6 11 9 9 9 9 7 6 7 5 4 5 5 6 5 6 6 6 4 2 1 2 3 3 3 3 4 6 7 6 5 4 4 4 5 6 5 4
4 6 3 2 1 5 2 4 10 6 6 6 7 8 8 8 8 8 8 7 6 5 4 5 6 5 6 6 6 6 5 6 5 4 3 4 3 3 6 6 6 5 5 5 4 3 4 3 3
4 5 6 6 4 3 3 10 7 8 5 7 8 7 8 8 7 8 8 7 7 6 5 6 6 5 5 6 6 6 6 4 4 5 4 3 3 3 5 5 5 6 6 6 4 2 2 1 1
3 2 3 6 4 4 6 8 9 8 7 3 6 9 9 8 8 8 7 7 7 6 6 7 6 6 6 5 5 6 5 6 5 5 4 3 4 4 5 5 5 5 6 6 5 4 5 4 5
3 2 2 3 3 4 5 5 8 4 8 4 7 10 8 7 8 7 7 7 5 6 5 6 6 6 5 6 5 5 5 5 5 4 5 5 4 5 5 5 6 6 6 6 5 4 5 6 5
4 2 3 3 4 5 2 7 6 6 8 8 7 9 9 9 8 7 6 6 6 6 5 5 5 6 5 5 4 5 5 5 5 4 4 5 4 5 5 5 5 6 6 7 6 6 6 6 6
7 5 7 5 5 1 3 8 2 6 7 7 7 7 6 7 8 7 7 7 7 6 6 5 4 5 5 5 5 5 5 5 5 5 5 5 5 5 5 5 6 6 6 6 6 6 5 6 6
Wind_Direction
323 31 80 42 63 65 242 259 266 307 275 226 92 147 150 79 145 196 261 144 136 147 144 148 146 146 143 140 144 149 145 126 126 111 113 117 125 126 126 133 119 111 104 100 98 97 93 91 94
347 102 49 74 99 118 259 258 258 247 307 110 94 70 39 71 84 111 112 159 145 142 141 146 146 143 136 142 129 121 114 112 105 109 115 128 131 133 139 134 124 117 107 104 103 102 102 100 103
136 49 88 105 132 186 211 195 289 292 260 238 104 52 103 22 38 151 140 144 137 139 138 147 143 137 141 136 129 122 115 111 116 121 136 137 141 142 146 141 126 121 115 116 115 112 110 112 112
212 27 38 102 224 252 227 316 325 327 293 201 131 71 23 4 179 158 141 137 133 130 130 141 140 141 141 132 133 124 120 123 120 133 156 148 145 144 140 131 127 125 129 128 124 120 117 117 115
318 75 91 177 247 265 275 316 327 300 303 343 155 148 59 35 128 132 135 138 136 132 147 160 147 146 145 141 137 133 132 132 131 147 134 123 146 140 128 133 133 136 139 138 136 130 125 119 110
299 111 109 206 247 262 315 310 298 284 280 227 81 95 105 354 120 141 142 145 143 140 140 151 147 152 153 153 147 142 139 140 148 155 146 108 130 116 131 143 141 146 148 148 148 143 138 126 112
168 129 171 184 257 315 295 328 28 316 280 217 148 87 5 64 163 125 123 126 134 137 133 138 143 159 165 161 158 153 151 151 153 160 148 136 126 128 148 150 154 157 156 156 159 162 177 216 94
78 136 150 200 213 246 11 340 340 27 299 344 129 155 187 183 133 105 91 96 114 131 142 146 155 169 166 171 165 159 157 159 157 162 156 150 149 154 162 157 174 168 165 168 180 192 223 280 320
269 174 208 206 198 195 44 16 345 286 309 339 1 121 130 128 122 110 109 98 101 121 146 153 155 162 142 155 167 155 164 165 161 160 156 144 158 166 168 180 190 178 175 179 192 212 243 292 320
202 192 217 190 173 135 87 56 344 2 332 334 53 65 100 122 135 141 158 157 158 174 182 176 164 163 149 159 143 149 159 157 154 157 166 161 171 173 177 217 226 206 193 190 200 208 223 291 318
221 214 183 225 136 65 357 30 3 359 328 65 291 150 129 126 138 147 160 173 180 180 171 187 183 171 164 157 148 147 149 153 165 174 174 176 171 198 202 209 230 225 221 212 223 224 216 232 247
178 233 199 107 100 169 296 344 358 22 266 309 309 281 140 156 157 154 161 172 174 174 191 189 181 178 185 157 166 167 163 168 181 191 180 169 187 201 207 211 218 220 214 208 211 209 232 253 256
176 177 188 114 153 132 67 334 339 296 298 293 263 218 168 168 162 178 164 155 160 181 196 201 185 192 187 179 166 170 180 185 191 188 191 178 190 202 195 215 214 222 211 211 213 214 226 238 249
175 139 160 135 152 134 126 257 50 279 282 325 229 195 193 185 177 152 178 188 184 188 194 193 196 197 180 190 184 192 184 193 194 194 199 193 194 201 201 211 218 222 210 216 212 212 220 234 229
179 85 90 171 171 153 111 310 227 260 280 285 276 227 205 221 203 203 195 195 192 194 196 198 195 187 190 200 197 191 198 187 202 210 193 199 199 202 204 209 211 224 208 217 219 228 231 244 230
96 82 132 180 154 186 138 234 227 262 269 268 270 268 245 219 182 210 222 221 213 207 196 195 196 182 186 199 197 195 201 194 205 209 204 202 203 202 207 211 219 217 202 202 206 218 227 236 229
186 162 157 158 186 141 171 207 197 215 249 270 256 260 264 279 265 214 234 215 233 233 231 213 193 188 200 197 191 196 206 203 211 205 213 218 214 205 209 214 221 204 210 208 209 222 215 223 237
182 171 182 167 195 186 196 221 174 183 199 239 259 252 246 249 276 306 191 138 87 74 90 26 146 174 195 169 185 203 202 225 222 217 216 222 222 211 203 226 224 189 212 225 207 224 211 229 241
124 100 175 154 178 184 209 186 243 186 217 218 246 232 237 235 155 92 95 106 97 54 78 64 87 26 82 142 189 203 222 203 213 227 242 223 220 224 206 218 209 191 206 224 211 206 224 248 194
142 131 174 125 152 178 169 213 207 230 228 214 225 232 228 195 153 124 114 98 84 89 68 63 54 36 39 67 130 135 290 277 258 232 219 212 213 215 212 220 229 221 211 224 220 194 198 232 175
30 138 162 160 103 46 113 253 194 238 228 227 252 236 195 197 174 164 148 133 127 112 96 77 48 35 38 26 23 19 7 1 342 344 299 305 268 250 235 232 225 225 200 224 225 205 204 244 196
84 195 156 125 143 190 168 266 237 226 238 236 238 232 212 184 175 166 160 146 134 111 90 90 84 66 36 22 44 54 177 236 294 332 328 324 349 338 319 268 244 237 209 217 225 212 213 196 234
189 150 171 105 114 115 258 204 248 224 242 235 235 217 213 197 180 176 168 150 133 120 96 75 76 55 47 60 66 85 68 291 331 347 348 341 355 22 14 355 307 255 231 232 225 214 202 202 206
131 80 50 54 87 267 197 179 239 200 216 224 229 205 196 191 172 159 148 132 120 100 90 73 76 49 43 56 51 63 68 28 62 23 26 2 6 17 8 359 360 349 312 261 242 235 222 212 218
82 84 46 40 269 219 232 212 260 245 241 235 239 210 187 178 159 155 154 152 140 126 109 104 93 64 49 58 54 49 55 56 53 33 27 25 9 6 352 353 355 349 335 326 298 246 240 222 203
141 158 150 189 194 227 125 242 244 238 248 248 236 185 151 167 166 164 167 160 152 142 125 112 103 87 66 66 54 45 44 54 49 37 25 20 12 355 355 353 359 356 358 357 3 29 53 54 101
153 163 188 106 22 55 225 292 295 254 267 237 193 152 169 167 172 169 166 160 156 147 142 133 114 92 72 75 67 53 46 50 47 32 26 22 0 357 6 7 8 9 11 6 16 30 31 43 36
77 269 77 356 138 239 269 271 247 280 270 237 181 175 172 166 161 166 167 159 155 142 128 113 109 106 98 84 73 66 53 49 44 40 29 21 10 6 11 13 16 17 18 13 31 37 22 58 40
158 204 204 146 153 183 257 258 219 258 263 212 190 175 172 172 172 168 164 158 149 134 132 126 118 115 99 90 81 72 53 47 43 39 22 18 19 14 22 23 27 27 23 16 36 47 39 58 51
224 212 181 154 228 215 151 269 258 281 259 172 181 182 179 172 167 165 162 156 154 151 142 134 121 111 109 101 85 71 58 47 45 35 22 24 35 26 33 33 41 31 27 29 32 48 49 59 51